,,Stat6,,Stat2,,Stat8,,Stat9,,Stat10,,Wind1,,Wind1,
time,status,PA1M_AVG,status,PR1M_SUM,status,RH1M_AVG,status,SR1M_AVG,status,TA1M_AVG,status,W1dAve1m,status,W1sAve1m,
2009-01-26, 00:00:00,VALID,917.704,VALID,0,VALID,100,VALID,-0.0679233,VALID,20.037,VALID,160,VALID,1.95694,
2009-01-26, 00:01:00,VALID,917.707,VALID,0,VALID,100,VALID,-0.0679233,VALID,20.06,VALID,156,VALID,1.5599,
2009-01-26, 00:02:00,VALID,917.698,VALID,0,VALID,100,VALID,-0.0339617,VALID,20.0662,VALID,148,VALID,1.75821,
2009-01-26, 00:03:00,VALID,917.667,VALID,0,VALID,100,VALID,-0.0169808,VALID,20.0562,VALID,152,VALID,2.14096,
2009-01-26, 00:04:00,VALID,917.657,VALID,0,VALID,100,VALID,-0.0169808,VALID,20.073,VALID,149,VALID,1.8248,
2009-01-26, 00:05:00,VALID,917.626,VALID,0,VALID,100,VALID,-0.0509425,VALID,20.0632,VALID,150,VALID,1.86589,
2009-01-26, 00:06:00,VALID,917.609,VALID,0,VALID,100,VALID,-0.0169808,VALID,20.0765,VALID,149,VALID,1.75854,
2009-01-26, 00:07:00,VALID,917.595,VALID,0,VALID,100,VALID,-0.0339617,VALID,20.0697,VALID,145,VALID,1.6942,
2009-01-26, 00:08:00,VALID,917.579,VALID,0,VALID,100,VALID,-0.0339617,VALID,20.063,VALID,137,VALID,2.35392,
2009-01-26, 00:09:00,VALID,917.547,VALID,0,VALID,99.999,VALID,-0.0509425,VALID,20.0567,VALID,150,VALID,2.69209,
2009-01-26, 00:10:00,VALID,917.518,VALID,0,VALID,99.9438,VALID,0,VALID,20.0732,VALID,149,VALID,2.46056,
2009-01-26, 00:11:00,VALID,917.513,VALID,0,VALID,99.8159,VALID,-0.0169808,VALID,20.1019,VALID,139,VALID,2.09297,
2009-01-26, 00:12:00,VALID,917.489,VALID,0,VALID,99.7472,VALID,0,VALID,20.0919,VALID,145,VALID,1.8641,
2009-01-26, 00:13:00,VALID,917.499,VALID,0,VALID,99.7256,VALID,-0.0169808,VALID,20.0794,VALID,133,VALID,2.00462,
2009-01-26, 00:14:00,VALID,917.532,VALID,0,VALID,99.7078,VALID,-0.0509425,VALID,20.07,VALID,142,VALID,2.16443,
2009-01-26, 00:15:00,VALID,917.567,VALID,0,VALID,99.6137,VALID,-0.0169808,VALID,20.063,VALID,134,VALID,2.38077,
2009-01-26, 00:16:00,VALID,917.581,VALID,0,VALID,99.5018,VALID,-0.0339617,VALID,20.0889,VALID,132,VALID,2.10677,
2009-01-26, 00:17:00,VALID,917.607,VALID,0,VALID,99.4636,VALID,-0.0169808,VALID,20.0987,VALID,129,VALID,1.97904,
2009-01-26, 00:18:00,VALID,917.625,VALID,0,VALID,99.4191,VALID,-0.0169808,VALID,20.0889,VALID,133,VALID,1.75836,
2009-01-26, 00:19:00,VALID,917.623,VALID,0,VALID,99.4662,VALID,-0.0339617,VALID,20.0824,VALID,121,VALID,1.59909,
2009-01-26, 00:20:00,VALID,917.633,VALID,0,VALID,99.4547,VALID,-0.0169808,VALID,20.0822,VALID,127,VALID,1.75509,
2009-01-26, 00:21:00,VALID,917.627,VALID,0,VALID,99.4992,VALID,-0.0509425,VALID,20.0757,VALID,135,VALID,1.73419,
2009-01-26, 00:22:00,VALID,917.613,VALID,0,VALID,99.4814,VALID,-0.0339617,VALID,20.0762,VALID,141,VALID,2.17894,
2009-01-26, 00:23:00,VALID,917.621,VALID,0,VALID,99.456,VALID,-0.118866,VALID,20.0642,VALID,145,VALID,1.73594,
2009-01-26, 00:24:00,VALID,917.615,VALID,0,VALID,99.4675,VALID,-0.152827,VALID,20.0677,VALID,139,VALID,1.88849,
2009-01-26, 00:25:00,VALID,917.596,VALID,0,VALID,99.5043,VALID,-0.118866,VALID,20.0677,VALID,152,VALID,1.91523,
2009-01-26, 00:26:00,VALID,917.589,VALID,0,VALID,99.5692,VALID,-0.135847,VALID,20.065,VALID,145,VALID,1.79076,
2009-01-26, 00:27:00,VALID,917.568,VALID,0,VALID,99.5933,VALID,-0.101885,VALID,20.0612,VALID,150,VALID,1.95469,
2009-01-26, 00:28:00,VALID,917.574,VALID,0,VALID,99.5107,VALID,-0.118866,VALID,20.0418,VALID,164,VALID,2.36755,
2009-01-26, 00:29:00,VALID,917.565,VALID,0,VALID,99.573,VALID,-0.101885,VALID,20.0445,VALID,165,VALID,2.24163,
2009-01-26, 00:30:00,VALID,917.547,VALID,0,VALID,99.7078,VALID,0,VALID,20.0432,VALID,152,VALID,2.23313,
2009-01-26, 00:31:00,VALID,917.529,VALID,0,VALID,99.7281,VALID,-0.0339617,VALID,20.024,VALID,148,VALID,1.91588,
2009-01-26, 00:32:00,VALID,917.526,VALID,0,VALID,99.8171,VALID,-0.0339617,VALID,20.0111,VALID,159,VALID,1.63626,
2009-01-26, 00:33:00,VALID,917.54,VALID,0,VALID,99.9339,VALID,-0.0339617,VALID,20.0013,VALID,146,VALID,2.01108,
2009-01-26, 00:34:00,VALID,917.536,VALID,0,VALID,99.9916,VALID,-0.0169808,VALID,19.9783,VALID,147,VALID,1.9217,
2009-01-26, 00:35:00,VALID,917.522,VALID,0,VALID,99.9888,VALID,-0.0339617,VALID,19.9783,VALID,154,VALID,1.97887,
2009-01-26, 00:36:00,VALID,917.517,VALID,0,VALID,99.8833,VALID,-0.0169808,VALID,20.0078,VALID,149,VALID,2.2963,
2009-01-26, 00:37:00,VALID,917.5,VALID,0,VALID,99.8095,VALID,-0.0339617,VALID,20.0375,VALID,148,VALID,2.11738,
2009-01-26, 00:38:00,VALID,917.492,VALID,0,VALID,99.6556,VALID,-0.0509425,VALID,20.0697,VALID,145,VALID,2.66959,
2009-01-26, 00:39:00,VALID,917.495,VALID,0,VALID,99.353,VALID,-0.0169808,VALID,20.1122,VALID,138,VALID,2.37014,
2009-01-26, 00:40:00,VALID,917.507,VALID,0,VALID,99.2208,VALID,-0.0169808,VALID,20.1219,VALID,142,VALID,2.44804,
2009-01-26, 00:41:00,VALID,917.486,VALID,0,VALID,99.1826,VALID,-0.0679233,VALID,20.1122,VALID,143,VALID,2.5611,
2009-01-26, 00:42:00,VALID,917.499,VALID,0,VALID,99.1737,VALID,-0.0509425,VALID,20.1024,VALID,145,VALID,2.42578,
2009-01-26, 00:43:00,VALID,917.481,VALID,0,VALID,99.2119,VALID,-0.0509425,VALID,20.0922,VALID,145,VALID,2.5427,
2009-01-26, 00:44:00,VALID,917.459,VALID,0,VALID,99.2882,VALID,-0.0339617,VALID,20.0727,VALID,154,VALID,2.61421,
2009-01-26, 00:45:00,VALID,917.468,VALID,0,VALID,99.428,VALID,-0.0509425,VALID,20.06,VALID,148,VALID,2.23473,
2009-01-26, 00:46:00,VALID,917.456,VALID,0,VALID,99.4675,VALID,-0.0169808,VALID,20.06,VALID,147,VALID,2.5692,
2009-01-26, 00:47:00,VALID,917.424,VALID,0,VALID,99.512,VALID,-0.0509425,VALID,20.047,VALID,145,VALID,2.19059,
2009-01-26, 00:48:00,VALID,917.402,VALID,0,VALID,99.6251,VALID,-0.0339617,VALID,20.0535,VALID,149,VALID,2.18824,
2009-01-26, 00:49:00,VALID,917.395,VALID,0,VALID,99.6251,VALID,-0.0509425,VALID,20.057,VALID,153,VALID,2.44245,
2009-01-26, 00:50:00,VALID,917.398,VALID,0,VALID,99.718,VALID,-0.0169808,VALID,20.0765,VALID,154,VALID,2.11488,
2009-01-26, 00:51:00,VALID,917.412,VALID,0,VALID,99.5806,VALID,-0.0339617,VALID,20.1054,VALID,145,VALID,2.28367,
2009-01-26, 00:52:00,VALID,917.439,VALID,0,VALID,99.3912,VALID,-0.0509425,VALID,20.1384,VALID,137,VALID,2.66518,
2009-01-26, 00:53:00,VALID,917.447,VALID,0,VALID,99.3225,VALID,-0.0509425,VALID,20.1314,VALID,143,VALID,2.25446,
2009-01-26, 00:54:00,VALID,917.43,VALID,0,VALID,99.2729,VALID,-0.0339617,VALID,20.1309,VALID,144,VALID,2.37551,
2009-01-26, 00:55:00,VALID,917.425,VALID,0,VALID,99.2424,VALID,-0.0169808,VALID,20.1438,VALID,137,VALID,2.2242,
2009-01-26, 00:56:00,VALID,917.412,VALID,0,VALID,99.2169,VALID,-0.0169808,VALID,20.1571,VALID,136,VALID,2.22257,
2009-01-26, 00:57:00,VALID,917.419,VALID,0,VALID,99.133,VALID,-0.0339617,VALID,20.1733,VALID,139,VALID,2.14939,
2009-01-26, 00:58:00,VALID,917.412,VALID,0,VALID,99.0364,VALID,-0.0339617,VALID,20.2058,VALID,126,VALID,1.87246,
2009-01-26, 00:59:00,VALID,917.413,VALID,0,VALID,98.9512,VALID,0.0169808,VALID,20.2252,VALID,132,VALID,1.86291,
2009-01-26, 01:00:00,VALID,917.41,VALID,0,VALID,98.9156,VALID,-0.0339617,VALID,20.2482,VALID,140,VALID,1.61942,
2009-01-26, 01:01:00,VALID,917.407,VALID,0,VALID,98.8762,VALID,-0.0339617,VALID,20.2612,VALID,132,VALID,1.74948,
2009-01-26, 01:02:00,VALID,917.402,VALID,0,VALID,98.791,VALID,-0.0849042,VALID,20.2647,VALID,136,VALID,1.9697,
2009-01-26, 01:03:00,VALID,917.415,VALID,0,VALID,98.8291,VALID,-0.0169808,VALID,20.2742,VALID,133,VALID,1.67406,
2009-01-26, 01:04:00,VALID,917.429,VALID,0,VALID,98.838,VALID,-0.0509425,VALID,20.2709,VALID,134,VALID,1.17045,
2009-01-26, 01:05:00,VALID,917.436,VALID,0,VALID,98.7782,VALID,-0.0509425,VALID,20.2674,VALID,139,VALID,1.95203,
2009-01-26, 01:06:00,VALID,917.444,VALID,0,VALID,98.796,VALID,-0.0509425,VALID,20.2544,VALID,136,VALID,1.81827,
2009-01-26, 01:07:00,VALID,917.434,VALID,0,VALID,98.9016,VALID,-0.0679233,VALID,20.2582,VALID,135,VALID,1.59505,
2009-01-26, 01:08:00,VALID,917.423,VALID,0,VALID,98.9817,VALID,-0.0849042,VALID,20.2382,VALID,145,VALID,1.1726,
2009-01-26, 01:09:00,VALID,917.403,VALID,0,VALID,99.072,VALID,-0.0339617,VALID,20.229,VALID,130,VALID,1.10435,
2009-01-26, 01:10:00,VALID,917.4,VALID,0,VALID,99.1852,VALID,-0.0509425,VALID,20.2093,VALID,120,VALID,0.865513,
2009-01-26, 01:11:00,VALID,917.4,VALID,0,VALID,99.3187,VALID,-0.0509425,VALID,20.1833,VALID,120,VALID,0.425586,
2009-01-26, 01:12:00,VALID,917.387,VALID,0,VALID,99.4624,VALID,-0.0679233,VALID,20.1673,VALID,127,VALID,0.213477,
2009-01-26, 01:13:00,VALID,917.387,VALID,0,VALID,99.6124,VALID,-0.0339617,VALID,20.1409,VALID,137,VALID,1.57584,
2009-01-26, 01:14:00,VALID,917.388,VALID,0,VALID,99.7141,VALID,-0.0509425,VALID,20.1214,VALID,134,VALID,1.94062,
2009-01-26, 01:15:00,VALID,917.39,VALID,0,VALID,99.84,VALID,-0.0509425,VALID,20.1179,VALID,127,VALID,1.28051,
2009-01-26, 01:16:00,VALID,917.387,VALID,0,VALID,99.9555,VALID,-0.0679233,VALID,20.1089,VALID,118,VALID,1.34684,
2009-01-26, 01:17:00,VALID,917.37,VALID,0,VALID,100,VALID,-0.0509425,VALID,20.1024,VALID,130,VALID,1.68217,
2009-01-26, 01:18:00,VALID,917.366,VALID,0,VALID,100,VALID,-0.0339617,VALID,20.1154,VALID,135,VALID,1.11291,
2009-01-26, 01:19:00,VALID,917.345,VALID,0,VALID,99.999,VALID,-0.0339617,VALID,20.1224,VALID,136,VALID,1.67422,
2009-01-26, 01:20:00,VALID,917.34,VALID,0,VALID,99.9977,VALID,-0.0849042,VALID,20.1384,VALID,111,VALID,0.902521,
2009-01-26, 01:21:00,VALID,917.312,VALID,0,VALID,100,VALID,-0.0509425,VALID,20.1151,VALID,109,VALID,0.813033,
2009-01-26, 01:22:00,VALID,917.284,VALID,0,VALID,100,VALID,-0.0339617,VALID,20.1024,VALID,131,VALID,1.05636,
2009-01-26, 01:23:00,VALID,917.277,VALID,0,VALID,100,VALID,-0.0339617,VALID,20.0894,VALID,133,VALID,1.25688,
2009-01-26, 01:24:00,VALID,917.257,VALID,0,VALID,100,VALID,-0.0849042,VALID,20.0932,VALID,126,VALID,0.568407,
2009-01-26, 01:25:00,VALID,917.245,VALID,0,VALID,100,VALID,-0.0509425,VALID,20.0989,VALID,126,VALID,1.33194,
2009-01-26, 01:26:00,VALID,917.25,VALID,0,VALID,100,VALID,-0.0509425,VALID,20.1384,VALID,129,VALID,1.39174,
2009-01-26, 01:27:00,VALID,917.226,VALID,0,VALID,99.9789,VALID,-0.0509425,VALID,20.1708,VALID,124,VALID,1.72456,
2009-01-26, 01:28:00,VALID,917.218,VALID,0,VALID,99.6925,VALID,-0.0849042,VALID,20.2295,VALID,115,VALID,1.88243,
2009-01-26, 01:29:00,VALID,917.193,VALID,0,VALID,99.4827,VALID,-0.0509425,VALID,20.2477,VALID,116,VALID,1.50426,
2009-01-26, 01:30:00,VALID,917.181,VALID,0,VALID,99.4128,VALID,0,VALID,20.2712,VALID,105,VALID,1.19398,
2009-01-26, 01:31:00,VALID,917.162,VALID,0,VALID,99.3085,VALID,-0.0849042,VALID,20.2609,VALID,101,VALID,1.20647,
2009-01-26, 01:32:00,VALID,917.126,VALID,0,VALID,99.0389,VALID,-0.0339617,VALID,20.2801,VALID,111,VALID,1.65465,
2009-01-26, 01:33:00,VALID,917.112,VALID,0,VALID,98.7948,VALID,-0.0339617,VALID,20.3258,VALID,120,VALID,1.39267,
2009-01-26, 01:34:00,VALID,917.093,VALID,0,VALID,98.4845,VALID,-0.0339617,VALID,20.3515,VALID,118,VALID,1.63411,
2009-01-26, 01:35:00,VALID,917.08,VALID,0,VALID,98.1997,VALID,0,VALID,20.404,VALID,114,VALID,1.45076,
2009-01-26, 01:36:00,VALID,917.079,VALID,0,VALID,98.1043,VALID,0,VALID,20.4129,VALID,123,VALID,1.27949,
2009-01-26, 01:37:00,VALID,917.058,VALID,0,VALID,98.0242,VALID,-0.0339617,VALID,20.4234,VALID,108,VALID,1.46328,
2009-01-26, 01:38:00,VALID,917.045,VALID,0,VALID,98.0191,VALID,0,VALID,20.4099,VALID,95,VALID,1.2466,
2009-01-26, 01:39:00,VALID,917.046,VALID,0,VALID,98.0458,VALID,-0.0169808,VALID,20.4035,VALID,113,VALID,1.18457,
2009-01-26, 01:40:00,VALID,917.046,VALID,0,VALID,97.9644,VALID,0,VALID,20.3875,VALID,122,VALID,1.75142,
2009-01-26, 01:41:00,VALID,917.046,VALID,0,VALID,97.9784,VALID,0,VALID,20.4102,VALID,123,VALID,1.38002,
2009-01-26, 01:42:00,VALID,917.065,VALID,0,VALID,97.7953,VALID,-0.0169808,VALID,20.4169,VALID,139,VALID,2.13463,
2009-01-26, 01:43:00,VALID,917.07,VALID,0,VALID,97.5969,VALID,0,VALID,20.4362,VALID,132,VALID,1.60121,
2009-01-26, 01:44:00,VALID,917.071,VALID,0,VALID,97.5219,VALID,0,VALID,20.4521,VALID,141,VALID,1.53561,
2009-01-26, 01:45:00,VALID,917.06,VALID,0,VALID,97.3668,VALID,0,VALID,20.4586,VALID,133,VALID,2.09809,
2009-01-26, 01:46:00,VALID,917.053,VALID,0,VALID,97.2498,VALID,-0.0339617,VALID,20.4781,VALID,157,VALID,1.55185,
2009-01-26, 01:47:00,VALID,917.047,VALID,0,VALID,97.0285,VALID,0,VALID,20.5116,VALID,112,VALID,2.2374,
2009-01-26, 01:48:00,VALID,917.059,VALID,0,VALID,96.8162,VALID,-0.0169808,VALID,20.5465,VALID,130,VALID,1.75033,
2009-01-26, 01:49:00,VALID,917.045,VALID,0,VALID,96.6381,VALID,-0.0169808,VALID,20.5595,VALID,132,VALID,1.91466,
2009-01-26, 01:50:00,VALID,917.044,VALID,0,VALID,96.6089,VALID,-0.0169808,VALID,20.5662,VALID,130,VALID,2.2745,
2009-01-26, 01:51:00,VALID,917.028,VALID,0,VALID,96.5542,VALID,-0.0169808,VALID,20.5692,VALID,130,VALID,1.69671,
2009-01-26, 01:52:00,VALID,917.004,VALID,0,VALID,96.6826,VALID,-0.0169808,VALID,20.5695,VALID,106,VALID,1.49795,
2009-01-26, 01:53:00,VALID,916.994,VALID,0,VALID,96.7831,VALID,0,VALID,20.543,VALID,121,VALID,1.21548,
2009-01-26, 01:54:00,VALID,916.975,VALID,0,VALID,96.8238,VALID,-0.0339617,VALID,20.5273,VALID,138,VALID,1.8043,
2009-01-26, 01:55:00,VALID,916.981,VALID,0,VALID,96.8734,VALID,-0.0169808,VALID,20.5146,VALID,134,VALID,2.28161,
2009-01-26, 01:56:00,VALID,916.956,VALID,0,VALID,96.9993,VALID,0,VALID,20.5276,VALID,136,VALID,1.43714,
2009-01-26, 01:57:00,VALID,916.943,VALID,0,VALID,97.0361,VALID,-0.0169808,VALID,20.5041,VALID,143,VALID,1.98558,
2009-01-26, 01:58:00,VALID,916.921,VALID,0,VALID,97.1353,VALID,0,VALID,20.5046,VALID,138,VALID,1.68129,
2009-01-26, 01:59:00,VALID,916.93,VALID,0,VALID,97.1519,VALID,0.0169808,VALID,20.4946,VALID,134,VALID,2.30971,
2009-01-26, 02:00:00,VALID,916.924,VALID,0,VALID,97.1455,VALID,-0.0169808,VALID,20.4681,VALID,136,VALID,1.95759,
2009-01-26, 02:01:00,VALID,916.915,VALID,0,VALID,97.1341,VALID,0,VALID,20.4716,VALID,133,VALID,1.96112,
2009-01-26, 02:02:00,VALID,916.896,VALID,0,VALID,97.1544,VALID,-0.0339617,VALID,20.4751,VALID,138,VALID,1.72942,
2009-01-26, 02:03:00,VALID,916.873,VALID,0,VALID,96.9726,VALID,-0.0169808,VALID,20.4559,VALID,140,VALID,1.74873,
2009-01-26, 02:04:00,VALID,916.843,VALID,0,VALID,96.5873,VALID,-0.0169808,VALID,20.4978,VALID,139,VALID,2.5968,
2009-01-26, 02:05:00,VALID,916.817,VALID,0,VALID,96.1168,VALID,0.0169808,VALID,20.5819,VALID,137,VALID,2.42702,
2009-01-26, 02:06:00,VALID,916.808,VALID,0,VALID,95.9464,VALID,0,VALID,20.6017,VALID,133,VALID,2.11753,
2009-01-26, 02:07:00,VALID,916.806,VALID,0,VALID,95.631,VALID,0,VALID,20.6311,VALID,135,VALID,2.06498,
2009-01-26, 02:08:00,VALID,916.792,VALID,0,VALID,95.3894,VALID,-0.0339617,VALID,20.6636,VALID,128,VALID,1.82667,
2009-01-26, 02:09:00,VALID,916.788,VALID,0,VALID,95.2572,VALID,-0.0169808,VALID,20.6826,VALID,133,VALID,1.90737,
2009-01-26, 02:10:00,VALID,916.789,VALID,0,VALID,95.1771,VALID,0,VALID,20.6793,VALID,140,VALID,2.08365,
2009-01-26, 02:11:00,VALID,916.774,VALID,0,VALID,95.1326,VALID,0,VALID,20.6955,VALID,144,VALID,1.90552,
2009-01-26, 02:12:00,VALID,916.768,VALID,0,VALID,95.0613,VALID,-0.0169808,VALID,20.6955,VALID,140,VALID,1.54459,
2009-01-26, 02:13:00,VALID,916.739,VALID,0,VALID,95.1326,VALID,0,VALID,20.6955,VALID,120,VALID,1.16043,
2009-01-26, 02:14:00,VALID,916.729,VALID,0,VALID,94.8973,VALID,0,VALID,20.6958,VALID,130,VALID,1.96745,
2009-01-26, 02:15:00,VALID,916.724,VALID,0,VALID,94.9202,VALID,0.0169808,VALID,20.7118,VALID,123,VALID,1.30378,
2009-01-26, 02:16:00,VALID,916.705,VALID,0,VALID,94.9253,VALID,-0.0169808,VALID,20.7055,VALID,124,VALID,1.55934,
2009-01-26, 02:17:00,VALID,916.709,VALID,0,VALID,94.9749,VALID,0,VALID,20.6923,VALID,140,VALID,1.40843,
2009-01-26, 02:18:00,VALID,916.707,VALID,0,VALID,95.1173,VALID,0,VALID,20.6923,VALID,134,VALID,1.60863,
2009-01-26, 02:19:00,VALID,916.686,VALID,0,VALID,95.2801,VALID,-0.0169808,VALID,20.6571,VALID,159,VALID,1.57222,
2009-01-26, 02:20:00,VALID,916.664,VALID,0,VALID,95.5535,VALID,0,VALID,20.6276,VALID,137,VALID,1.78398,
2009-01-26, 02:21:00,VALID,916.664,VALID,0,VALID,95.701,VALID,-0.0169808,VALID,20.6079,VALID,128,VALID,2.23837,
2009-01-26, 02:22:00,VALID,916.676,VALID,0,VALID,95.8281,VALID,0,VALID,20.5852,VALID,140,VALID,1.99922,
2009-01-26, 02:23:00,VALID,916.676,VALID,0,VALID,95.8942,VALID,0,VALID,20.566,VALID,145,VALID,2.25953,
2009-01-26, 02:24:00,VALID,916.69,VALID,0,VALID,95.9476,VALID,-0.0339617,VALID,20.5662,VALID,125,VALID,1.24518,
2009-01-26, 02:25:00,VALID,916.676,VALID,0,VALID,96.0303,VALID,-0.0339617,VALID,20.5527,VALID,141,VALID,1.95427,
2009-01-26, 02:26:00,VALID,916.665,VALID,0,VALID,96.0532,VALID,-0.0339617,VALID,20.5498,VALID,155,VALID,2.14367,
2009-01-26, 02:27:00,VALID,916.65,VALID,0,VALID,95.9731,VALID,-0.0339617,VALID,20.5498,VALID,138,VALID,2.17264,
2009-01-26, 02:28:00,VALID,916.658,VALID,0,VALID,95.8968,VALID,-0.0169808,VALID,20.5662,VALID,144,VALID,1.56678,
2009-01-26, 02:29:00,VALID,916.657,VALID,0,VALID,95.9197,VALID,-0.0509425,VALID,20.5597,VALID,140,VALID,1.28835,
2009-01-26, 02:30:00,VALID,916.652,VALID,0,VALID,95.9756,VALID,0,VALID,20.5433,VALID,132,VALID,1.16838,
2009-01-26, 02:31:00,VALID,916.642,VALID,0,VALID,96.0824,VALID,0,VALID,20.5205,VALID,132,VALID,0.388021,
2009-01-26, 02:32:00,VALID,916.649,VALID,0,VALID,96.1829,VALID,0,VALID,20.4748,VALID,142,VALID,0.922602,
2009-01-26, 02:33:00,VALID,916.662,VALID,0,VALID,96.2923,VALID,-0.0509425,VALID,20.4689,VALID,129,VALID,1.52227,
2009-01-26, 02:34:00,VALID,916.658,VALID,0,VALID,96.3927,VALID,0,VALID,20.4656,VALID,128,VALID,1.36737,
2009-01-26, 02:35:00,VALID,916.644,VALID,0,VALID,96.3749,VALID,-0.0169808,VALID,20.4556,VALID,137,VALID,1.79554,
2009-01-26, 02:36:00,VALID,916.657,VALID,0,VALID,96.3953,VALID,-0.0339617,VALID,20.4626,VALID,118,VALID,1.20792,
2009-01-26, 02:37:00,VALID,916.664,VALID,0,VALID,96.3864,VALID,-0.0169808,VALID,20.4591,VALID,109,VALID,0.948552,
2009-01-26, 02:38:00,VALID,916.653,VALID,0,VALID,96.2859,VALID,-0.0169808,VALID,20.4819,VALID,139,VALID,1.80729,
2009-01-26, 02:39:00,VALID,916.654,VALID,0,VALID,96.1448,VALID,-0.0169808,VALID,20.4976,VALID,135,VALID,2.24004,
2009-01-26, 02:40:00,VALID,916.639,VALID,0,VALID,96.057,VALID,-0.0339617,VALID,20.5138,VALID,133,VALID,1.88758,
2009-01-26, 02:41:00,VALID,916.628,VALID,0,VALID,96.0163,VALID,-0.0169808,VALID,20.5138,VALID,114,VALID,1.52515,
2009-01-26, 02:42:00,VALID,916.612,VALID,0,VALID,96.015,VALID,-0.0339617,VALID,20.524,VALID,136,VALID,1.4974,
2009-01-26, 02:43:00,VALID,916.595,VALID,0,VALID,96.071,VALID,-0.0169808,VALID,20.5113,VALID,136,VALID,1.51772,
2009-01-26, 02:44:00,VALID,916.579,VALID,0,VALID,96.1905,VALID,0,VALID,20.4748,VALID,115,VALID,1.42778,
2009-01-26, 02:45:00,VALID,916.575,VALID,0,VALID,96.394,VALID,-0.0169808,VALID,20.4559,VALID,122,VALID,1.62926,
2009-01-26, 02:46:00,VALID,916.556,VALID,0,VALID,96.4067,VALID,-0.0339617,VALID,20.4427,VALID,140,VALID,1.95839,
2009-01-26, 02:47:00,VALID,916.552,VALID,0,VALID,96.3228,VALID,-0.0339617,VALID,20.4651,VALID,131,VALID,1.71476,
2009-01-26, 02:48:00,VALID,916.539,VALID,0,VALID,95.9756,VALID,-0.0169808,VALID,20.5213,VALID,148,VALID,2.5651,
2009-01-26, 02:49:00,VALID,916.523,VALID,0,VALID,95.7467,VALID,-0.0339617,VALID,20.5692,VALID,137,VALID,1.96711,
2009-01-26, 02:50:00,VALID,916.518,VALID,0,VALID,95.5039,VALID,-0.0169808,VALID,20.5984,VALID,143,VALID,2.71437,
2009-01-26, 02:51:00,VALID,916.518,VALID,0,VALID,95.1936,VALID,-0.0169808,VALID,20.6439,VALID,143,VALID,2.03925,
2009-01-26, 02:52:00,VALID,916.534,VALID,0,VALID,95.1224,VALID,-0.0339617,VALID,20.6731,VALID,132,VALID,1.6835,
2009-01-26, 02:53:00,VALID,916.539,VALID,0,VALID,95.247,VALID,-0.0169808,VALID,20.6536,VALID,125,VALID,1.52208,
2009-01-26, 02:54:00,VALID,916.528,VALID,0,VALID,95.3538,VALID,-0.0339617,VALID,20.6247,VALID,143,VALID,1.56098,
2009-01-26, 02:55:00,VALID,916.518,VALID,0,VALID,95.4377,VALID,0,VALID,20.6144,VALID,153,VALID,1.65549,
2009-01-26, 02:56:00,VALID,916.502,VALID,0,VALID,95.4733,VALID,-0.0169808,VALID,20.6141,VALID,143,VALID,1.92241,
2009-01-26, 02:57:00,VALID,916.49,VALID,0,VALID,95.4835,VALID,-0.0339617,VALID,20.6049,VALID,148,VALID,2.08043,
2009-01-26, 02:58:00,VALID,916.478,VALID,0,VALID,95.5089,VALID,0,VALID,20.6149,VALID,140,VALID,2.33966,
2009-01-26, 02:59:00,VALID,916.489,VALID,0,VALID,95.5941,VALID,-0.0169808,VALID,20.6176,VALID,128,VALID,1.7234,
2009-01-26, 03:00:00,VALID,916.491,VALID,0,VALID,95.6094,VALID,0,VALID,20.6047,VALID,140,VALID,2.13765,
2009-01-26, 03:01:00,VALID,916.501,VALID,0,VALID,95.4517,VALID,0,VALID,20.6282,VALID,137,VALID,2.70401,
2009-01-26, 03:02:00,VALID,916.49,VALID,0,VALID,95.2139,VALID,-0.0169808,VALID,20.6701,VALID,130,VALID,2.46639,
2009-01-26, 03:03:00,VALID,916.492,VALID,0,VALID,95.0448,VALID,-0.0339617,VALID,20.6866,VALID,143,VALID,2.71768,
2009-01-26, 03:04:00,VALID,916.468,VALID,0,VALID,94.9978,VALID,-0.0339617,VALID,20.6988,VALID,136,VALID,2.35899,
2009-01-26, 03:05:00,VALID,916.463,VALID,0,VALID,94.9965,VALID,-0.0339617,VALID,20.6958,VALID,145,VALID,1.70517,
2009-01-26, 03:06:00,VALID,916.462,VALID,0,VALID,95.088,VALID,-0.0339617,VALID,20.6866,VALID,138,VALID,2.20257,
2009-01-26, 03:07:00,VALID,916.457,VALID,0,VALID,95.3182,VALID,-0.0339617,VALID,20.6441,VALID,134,VALID,2.43359,
2009-01-26, 03:08:00,VALID,916.443,VALID,0,VALID,95.308,VALID,0,VALID,20.6241,VALID,127,VALID,1.87652,
2009-01-26, 03:09:00,VALID,916.458,VALID,0,VALID,95.4365,VALID,-0.0509425,VALID,20.6341,VALID,129,VALID,1.08724,
2009-01-26, 03:10:00,VALID,916.451,VALID,0,VALID,95.5229,VALID,-0.0339617,VALID,20.6057,VALID,127,VALID,1.71551,
2009-01-26, 03:11:00,VALID,916.447,VALID,0,VALID,95.5484,VALID,-0.0339617,VALID,20.5995,VALID,131,VALID,2.44062,
2009-01-26, 03:12:00,VALID,916.449,VALID,0,VALID,95.4644,VALID,-0.0169808,VALID,20.6149,VALID,137,VALID,2.39531,
2009-01-26, 03:13:01,VALID,916.447,VALID,0,VALID,95.4975,VALID,-0.0509425,VALID,20.6282,VALID,133,VALID,1.48685,
2009-01-26, 03:14:00,VALID,916.431,VALID,0,VALID,95.6208,VALID,-0.0849042,VALID,20.589,VALID,129,VALID,1.66188,
2009-01-26, 03:15:00,VALID,916.415,VALID,0,VALID,95.7645,VALID,0,VALID,20.5625,VALID,135,VALID,2.18349,
2009-01-26, 03:16:00,VALID,916.408,VALID,0,VALID,95.8714,VALID,0,VALID,20.5462,VALID,143,VALID,1.62962,
2009-01-26, 03:17:00,VALID,916.398,VALID,0,VALID,96.0799,VALID,-0.0169808,VALID,20.5235,VALID,152,VALID,1.78663,
2009-01-26, 03:18:01,VALID,916.404,VALID,0,VALID,96.2452,VALID,-0.0169808,VALID,20.4911,VALID,132,VALID,1.78516,
2009-01-26, 03:19:00,VALID,916.404,VALID,0,VALID,96.4143,VALID,-0.0169808,VALID,20.4556,VALID,131,VALID,1.63192,
2009-01-26, 03:20:01,VALID,916.411,VALID,0,VALID,96.5733,VALID,0,VALID,20.4199,VALID,133,VALID,1.76749,
2009-01-26, 03:21:00,VALID,916.389,VALID,0,VALID,96.7208,VALID,-0.0509425,VALID,20.414,VALID,141,VALID,1.51964,
2009-01-26, 03:22:00,VALID,916.362,VALID,0,VALID,96.8657,VALID,-0.0339617,VALID,20.3907,VALID,159,VALID,2.02676,
2009-01-26, 03:23:00,VALID,916.36,VALID,0,VALID,96.9853,VALID,-0.0339617,VALID,20.3945,VALID,155,VALID,1.77113,
2009-01-26, 03:24:01,VALID,916.357,VALID,0,VALID,97.073,VALID,-0.0169808,VALID,20.3845,VALID,155,VALID,1.39258,
2009-01-26, 03:25:01,VALID,916.372,VALID,0,VALID,97.1811,VALID,-0.0339617,VALID,20.3783,VALID,149,VALID,1.28416,
2009-01-26, 03:26:00,VALID,916.351,VALID,0,VALID,97.2981,VALID,-0.0509425,VALID,20.3648,VALID,150,VALID,1.32347,
2009-01-26, 03:27:00,VALID,916.34,VALID,0,VALID,97.4036,VALID,-0.0169808,VALID,20.3453,VALID,139,VALID,2.04869,
2009-01-26, 03:28:01,VALID,916.34,VALID,0,VALID,97.4672,VALID,-0.0169808,VALID,20.3353,VALID,142,VALID,2.01749,
2009-01-26, 03:29:01,VALID,916.337,VALID,0,VALID,97.5257,VALID,0,VALID,20.3318,VALID,143,VALID,1.85302,
2009-01-26, 03:30:00,VALID,916.341,VALID,0,VALID,97.6287,VALID,-0.0509425,VALID,20.3126,VALID,141,VALID,1.64672,
2009-01-26, 03:31:00,VALID,916.348,VALID,0,VALID,97.7012,VALID,-0.0169808,VALID,20.2969,VALID,153,VALID,1.91202,
2009-01-26, 03:32:00,VALID,916.35,VALID,0,VALID,97.7419,VALID,-0.0339617,VALID,20.3064,VALID,145,VALID,1.92537,